This is the latest recevied weather packets stored in our database for station/object VK2ZAZ-10. If no packets are shown the sender has not sent any weather packets the latest 10 day(s).
| Time | Temp. | Humidity | Pressure | Rain* | Wind** | Luminosity | Snow |
|---|---|---|---|---|---|---|---|
| 1777988663 | 17.78° C | 49% | 1024.1 hPa | - | - | - | - |
| 1777986863 | 18.33° C | 48% | 1024.1 hPa | - | - | - | - |
| 1777985062 | 18.33° C | 49% | 1024.2 hPa | - | - | - | - |
| 1777983262 | 18.89° C | 48% | 1024.4 hPa | - | - | - | - |
| 1777981462 | 18.89° C | 48% | 1024.3 hPa | - | - | - | - |
| 1777979665 | 18.89° C | 48% | 1024.1 hPa | - | - | - | - |
| 1777977862 | 19.44° C | 48% | 1023.9 hPa | - | - | - | - |
| 1777976064 | 19.44° C | 47% | 1023.7 hPa | - | - | - | - |
| 1777974262 | 19.44° C | 47% | 1023.5 hPa | - | - | - | - |
| 1777972462 | 20° C | 47% | 1023.1 hPa | - | - | - | - |
| 1777970662 | 20.56° C | 46% | 1022.8 hPa | - | - | - | - |
| 1777968863 | 20.56° C | 46% | 1022.3 hPa | - | - | - | - |
| 1777967063 | 21.11° C | 46% | 1021.9 hPa | - | - | - | - |
| 1777965262 | 21.11° C | 47% | 1021.4 hPa | - | - | - | - |
| 1777963463 | 21.67° C | 47% | 1020.7 hPa | - | - | - | - |
| 1777961663 | 21.67° C | 47% | 1020.3 hPa | - | - | - | - |
| 1777959863 | 21.67° C | 48% | 1019.9 hPa | - | - | - | - |
| 1777958063 | 22.22° C | 48% | 1019.5 hPa | - | - | - | - |
| 1777956263 | 22.22° C | 48% | 1019.2 hPa | - | - | - | - |
| 1777954463 | 22.22° C | 48% | 1018.8 hPa | - | - | - | - |
| 1777952663 | 22.22° C | 48% | 1018.4 hPa | - | - | - | - |
| 1777950861 | 21.67° C | 49% | 1018.5 hPa | - | - | - | - |
| 1777949063 | 21.11° C | 49% | 1018.6 hPa | - | - | - | - |
| 1777947261 | 21.11° C | 50% | 1019 hPa | - | - | - | - |
| 1777945463 | 20.56° C | 50% | 1019.3 hPa | - | - | - | - |
* Rain since midnight (hover to see other rain measurements)
** Current wind speed in m/s (hover to see current wind gust speed)